{"data":{"norad_id":63429,"intl_designator":"2025-067B","name":"HJS-6B","alt_names":[],"object_type":"PAYLOAD","status":"ACTIVE","operator":null,"country":"PRC","launch_date":"2025-04-01","launch_site_code":"JSC","launch_vehicle":null,"mission":null,"orbit_class":"UNKNOWN","rcs_meters":null,"size_class":null,"mass_kg":null,"dimensions":null,"purposes":[],"wikipedia_slug":null,"has_3d_model":false,"image_url":null,"decayed_at":null,"tle_current":{"epoch":"2026-05-25T05:32:02.937120Z","epoch_age_seconds":45408,"freshness":"FRESH","line1":"1 63429U 25067B   26145.23058955  .00004821  00000+0  20352-3 0  9998","line2":"2 63429  54.9896 128.5169 0004413 282.9041  77.1488 15.25082800 64441","mean_motion":15.250828,"eccentricity":0.0004413,"inclination_deg":54.9896,"raan_deg":128.5169,"arg_perigee_deg":282.9041,"mean_anomaly_deg":77.1488,"bstar":0.00020352,"rev_number":6444,"period_min":94.421102906675,"perigee_km":487.50566678352,"apogee_km":493.56795829047,"semimajor_km":6868.673812537,"source":"CELESTRAK","updated_at":"2026-05-25T13:38:03.729136Z"}}}